Location: Remedello Sotto
(45.2500°N, 10.3667°E)
Time: 19:46:13
(UTC+00:00)

AQUARIUS - Pass Details

Date: 03 February 2023
Orbit: 647 x 648 km, 98.0° (Epoch: 23 March)

Event Time Altitude Azimuth Distance (km) Brightness Sun altitude
Rises 16:52:25 0° 169° (SSE) 2,954 7.6 -4.8°
Reaches altitude 10° 16:54:37 10° 170° (S) 2,048 6.8 -5.2°
Maximum altitude 16:59:05 78° 256° (WSW) 670 4.4 -5.9°
Drops below altitude 10° 17:03:36 10° 344° (NNW) 2,065 6.7 -6.7°
Sets 17:05:50 0° 346° (NNW) 2,980 7.5 -7.1°
